Wind_Speed
5 3 6 9 6 6 3 4 9 16 13 6 10 15 20 16 13 18 17 16 19 15 15 22 21 33 37 42 39 38 39 31 28 23 20 19 21 20 18 18 15 12 11 12
3 5 8 5 6 7 5 7 14 15 8 6 14 18 18 20 16 16 16 16 18 17 16 19 26 34 35 38 41 39 37 37 31 27 23 18 19 16 19 18 15 13 12 10
6 7 8 9 8 8 8 7 12 12 3 8 8 6 13 9 10 11 11 11 5 16 18 15 21 33 33 35 40 42 39 37 32 28 24 17 17 19 18 20 18 16 15 12
6 14 11 9 11 6 7 7 14 11 2 3 5 3 6 11 10 9 10 15 15 15 18 16 23 32 38 35 41 43 41 37 32 29 27 24 21 19 22 23 20 18 17 14
6 5 8 11 13 7 13 13 11 2 1 4 2 4 5 15 15 16 20 20 19 21 20 21 24 33 36 38 38 43 41 39 34 31 31 29 21 24 22 23 23 21 19 17
7 5 3 7 12 10 12 6 5 5 3 2 5 6 5 15 23 23 19 21 20 23 19 17 28 34 33 36 36 40 42 41 38 35 32 34 29 21 22 27 28 24 23 21
5 5 4 4 3 5 5 6 3 4 2 5 3 3 7 24 19 26 28 28 26 17 17 11 17 30 33 35 35 37 41 40 41 38 35 35 32 26 20 30 31 29 27 23
3 6 4 7 2 5 3 9 6 6 2 4 3 4 5 14 20 26 33 25 14 14 11 14 20 28 38 39 38 37 38 39 43 42 38 36 34 31 26 23 31 32 32 28
2 4 6 3 4 3 3 2 7 6 1 4 4 7 5 12 5 14 20 16 19 17 15 16 26 31 35 39 41 41 40 39 43 45 43 40 37 35 33 23 26 31 32 30
2 3 4 6 8 8 1 3 3 4 4 4 5 5 4 12 15 6 13 20 18 17 16 13 22 34 31 39 41 40 42 41 44 44 44 44 42 39 38 33 25 26 27 31
6 4 7 5 5 3 7 6 5 5 5 5 3 4 2 9 14 15 16 21 17 17 16 11 15 26 27 32 35 37 37 39 36 39 41 40 42 42 40 38 35 29 24 29
4 3 3 6 5 4 5 8 7 4 1 3 4 4 2 11 16 18 16 4 8 8 4 6 14 21 27 31 34 37 38 40 42 41 38 39 43 46 43 42 42 37 31 24
5 4 5 13 6 8 6 8 7 4 3 3 5 4 8 13 16 15 19 9 12 8 7 2 4 13 14 14 26 36 39 42 41 38 39 37 37 40 43 42 44 42 37 30
6 3 4 4 4 4 7 14 9 5 3 3 2 4 9 11 12 14 17 17 8 7 6 5 7 5 4 10 13 19 35 38 40 40 39 38 39 39 42 43 41 44 40 40
4 2 4 2 4 5 8 14 11 5 4 3 6 6 3 3 7 8 10 10 10 6 5 6 8 12 10 15 17 22 19 33 37 38 38 40 37 39 40 41 42 45 47 42
5 3 5 7 8 9 8 10 12 9 5 5 7 5 5 3 6 8 8 11 14 15 14 10 16 17 25 19 21 23 24 20 35 38 39 38 38 36 37 40 42 43 46 47
0 3 3 3 7 8 7 4 5 8 3 0 4 6 4 8 8 7 10 13 12 11 12 12 12 15 17 21 14 8 23 22 18 34 36 37 37 37 37 35 38 38 41 43
4 5 3 3 4 3 6 7 9 11 3 6 2 7 9 6 3 11 10 11 12 11 13 14 16 19 13 18 6 4 5 18 25 13 30 33 36 36 36 36 36 36 35 38
4 4 2 3 4 7 12 7 7 7 6 12 10 13 9 12 7 5 11 11 12 12 13 20 23 25 26 21 23 8 11 10 12 15 13 19 33 33 35 37 37 36 33 34
7 5 4 2 3 5 1 14 15 12 4 13 13 15 14 11 4 3 13 11 10 21 26 22 30 26 14 14 21 24 22 20 26 24 16 15 11 32 37 37 37 37 37 36
4 4 3 3 4 4 8 15 12 4 4 16 12 14 17 6 4 12 13 16 12 12 23 28 22 19 8 10 16 20 28 25 27 21 16 17 24 25 37 37 36 37 36 34
1 2 1 3 3 5 10 6 2 8 10 14 16 14 18 18 16 15 13 13 18 20 21 20 14 14 10 10 8 10 24 31 30 30 27 27 32 32 35 37 37 37 34 35
3 4 3 6 5 5 2 5 8 8 13 14 18 16 17 21 21 20 18 15 14 20 22 18 17 8 15 8 8 9 13 20 16 24 25 38 38 40 42 39 39 35 35 33
3 3 3 1 5 3 10 8 6 12 14 16 16 17 17 21 19 19 18 17 13 18 19 17 16 8 9 10 9 10 7 13 22 30 35 36 35 35 40 39 41 38 36 36
4 3 5 6 8 6 6 7 9 11 14 14 17 15 17 19 14 15 15 17 20 18 25 18 15 10 12 13 13 6 9 7 15 22 31 32 29 35 35 37 38 40 42 43
6 6 5 5 7 5 9 7 9 10 15 12 13 14 16 17 12 12 12 20 23 21 23 16 14 10 9 12 15 12 12 10 13 17 21 22 25 25 32 31 34 41 39 41
Wind_Direction
193 132 221 243 188 193 215 286 280 286 282 216 185 158 180 174 186 172 184 185 184 198 209 209 172 169 171 172 172 175 175 174 172 179 180 174 166 171 183 187 177 178 170 163
326 218 227 245 226 241 259 255 274 282 272 207 163 177 176 180 188 184 182 185 197 194 211 204 167 172 172 173 175 176 178 176 181 185 185 183 180 188 185 189 193 189 181 168
191 243 231 240 267 237 246 225 257 252 333 50 115 148 182 191 209 188 182 186 231 211 206 208 170 174 179 172 178 178 179 181 186 189 190 189 190 197 189 188 190 194 191 177
212 235 227 225 243 221 256 223 250 269 70 185 165 205 170 164 184 192 193 193 209 228 220 205 173 176 177 179 180 182 183 184 186 191 193 199 202 203 206 196 196 199 193 186
253 251 218 227 237 207 247 249 242 261 58 123 290 105 296 158 195 202 207 220 198 210 208 194 178 179 179 178 179 183 186 188 191 197 199 203 211 214 209 204 199 196 198 193
229 250 209 234 242 227 249 255 336 54 91 32 208 149 181 176 201 200 212 225 209 202 196 196 175 175 178 182 180 184 187 192 194 199 205 207 212 218 216 208 205 201 203 200
327 275 271 217 314 331 176 69 351 334 360 206 144 43 226 211 192 193 199 211 212 195 191 199 178 176 179 179 182 184 186 189 197 200 206 213 217 222 221 209 208 204 205 201
209 319 9 348 116 212 169 154 163 195 190 264 42 205 258 206 203 191 199 197 192 188 190 213 188 179 180 182 184 184 187 189 195 200 208 212 218 224 224 219 211 205 204 205
56 270 317 79 312 180 264 136 190 128 102 66 280 309 342 43 280 204 193 186 191 185 184 205 193 188 182 184 186 187 188 192 195 201 207 214 217 221 227 221 216 222 214 210
314 325 345 314 357 22 284 175 41 11 138 179 305 342 275 4 340 242 200 199 201 181 185 190 186 192 182 187 189 190 190 192 198 201 206 213 219 221 223 226 221 220 215 215
19 68 298 20 58 17 353 348 48 112 132 141 124 289 27 49 22 6 215 209 199 184 179 164 175 184 179 182 187 190 193 194 196 200 204 208 218 224 226 229 227 225 224 226
324 112 317 254 303 310 107 42 26 99 227 53 114 246 330 59 57 32 9 227 129 149 196 190 166 161 178 187 188 192 194 196 198 199 203 208 214 221 226 229 230 230 229 224
325 13 355 339 14 22 23 18 358 275 9 157 124 268 352 47 48 40 23 8 149 130 171 347 323 59 18 285 204 194 195 198 200 199 199 205 211 215 221 228 233 234 233 231
46 63 134 178 189 266 324 333 360 68 52 319 205 360 29 30 35 33 44 31 35 61 54 10 333 339 348 293 292 240 205 198 198 199 201 203 206 211 218 223 230 235 235 233
67 27 7 251 294 326 316 316 329 344 324 298 300 333 331 44 20 21 54 36 54 9 64 354 318 315 300 261 262 264 258 202 198 198 202 206 208 208 214 217 222 231 234 235
9 331 18 345 360 2 328 316 311 299 302 294 323 301 28 72 80 34 31 63 43 29 357 2 345 335 341 310 249 237 247 251 198 200 204 206 207 209 209 214 216 222 231 233
360 103 52 305 354 354 316 277 303 309 313 259 318 264 331 31 50 40 49 36 40 13 6 349 341 337 356 343 24 201 222 226 209 206 206 205 204 207 210 210 214 218 222 227
172 125 116 207 55 268 240 309 297 286 23 25 323 353 57 357 328 98 53 30 17 1 340 332 338 320 347 12 335 10 193 213 234 218 208 207 207 205 209 209 212 216 219 222
23 123 118 169 200 291 304 22 338 332 315 27 4 343 22 348 309 166 41 21 348 336 329 316 318 332 322 353 328 288 247 218 229 208 205 214 211 209 207 208 211 215 216 219
17 67 126 133 194 241 13 330 315 303 237 9 355 329 338 352 353 262 344 345 345 326 324 322 321 315 333 328 314 307 304 266 255 244 213 226 250 221 214 210 211 213 217 221
350 15 33 249 250 270 352 329 320 218 305 333 337 318 314 310 250 293 307 304 307 305 308 310 302 285 291 320 296 283 289 287 263 259 240 238 268 255 227 216 214 212 213 218
353 71 10 328 284 274 8 345 354 319 327 315 313 309 307 305 300 290 286 288 300 307 309 313 304 264 265 283 288 283 273 284 300 291 278 277 265 255 235 222 216 214 212 214
215 178 197 200 239 276 61 245 287 298 311 307 306 304 298 304 297 294 291 286 280 286 293 295 295 293 295 228 268 281 287 302 299 311 290 259 266 263 225 217 217 211 211 213
200 157 217 338 255 268 314 307 309 317 305 304 300 292 303 298 280 279 284 287 285 280 278 263 270 272 261 279 281 273 276 299 309 298 293 283 261 237 220 214 212 208 208 211
197 164 228 243 274 286 259 304 299 311 307 294 306 301 305 316 272 276 280 281 282 276 283 244 245 249 281 299 299 274 280 272 262 266 280 285 262 229 217 214 211 210 212 210
178 196 195 225 210 190 256 256 296 313 320 311 308 304 307 323 327 316 311 301 270 255 262 223 231 238 244 263 294 311 294 300 293 292 286 280 277 230 214 215 215 216 219 221
Height
763 783 792 783 778 778 781 788 791 771 758 766 772 782 779 779 783 784 787 786 786 790 794 799 804 809 813 817 822 826 830 835 839 843 847 849 850 851 853 855 856 856 857 857
774 788 772 765 766 772 779 790 788 769 757 762 776 781 779 777 779 779 784 786 786 787 790 794 801 808 811 814 818 823 827 832 837 841 846 848 849 851 853 855 857 857 858 858
783 771 759 765 771 776 781 791 783 783 763 763 775 794 793 791 786 782 784 783 786 784 788 792 796 802 809 810 814 820 824 829 834 839 844 848 849 851 853 854 856 857 858 859
772 755 761 768 773 772 794 767 765 765 776 800 766 812 800 794 796 793 787 784 781 781 781 786 793 798 802 807 812 817 821 827 831 836 840 845 847 849 851 852 854 856 858 859
772 760 764 767 764 761 773 754 762 760 773 781 779 799 795 787 796 791 782 765 764 769 772 777 785 792 798 803 808 813 818 823 828 833 837 842 846 849 850 851 853 854 856 858
764 746 751 756 746 747 744 757 763 775 786 812 788 790 812 792 777 777 775 769 764 761 766 770 778 787 794 800 804 809 814 820 825 831 835 839 843 846 848 849 851 853 855 857
765 757 746 741 754 747 749 782 815 811 814 818 783 792 782 760 754 758 762 760 756 761 764 769 775 780 788 793 798 804 808 815 820 827 831 836 840 844 846 846 848 851 853 854
788 789 754 746 750 759 758 776 810 820 822 812 777 794 770 740 731 733 738 749 756 757 762 764 764 771 777 785 791 797 803 809 815 821 828 831 837 840 843 845 846 847 850 851
793 781 753 746 747 745 757 774 767 795 795 809 797 774 744 738 737 739 742 747 750 749 753 755 757 764 771 777 782 789 796 803 809 815 823 828 831 835 838 842 844 845 847 849
779 790 770 753 745 747 751 750 782 803 816 817 806 792 791 769 756 739 744 737 735 739 742 744 745 755 763 768 774 783 788 796 802 809 816 822 827 831 834 838 841 842 845 847
786 795 787 768 783 789 784 790 779 790 802 822 826 811 770 767 755 746 732 726 730 733 736 740 742 750 757 764 770 776 785 792 797 804 809 816 822 827 830 833 837 840 842 845
792 803 808 789 778 771 778 803 807 808 800 811 812 808 767 757 750 746 741 728 734 740 748 747 743 747 754 759 765 771 777 784 788 794 803 809 815 821 826 828 831 835 838 841
798 818 823 797 793 792 800 802 808 809 810 810 820 813 771 760 757 752 746 732 732 740 744 751 755 764 766 768 763 763 769 773 781 789 794 802 808 813 819 824 827 830 834 837
797 820 824 835 825 815 814 805 805 817 830 825 813 803 793 777 770 760 754 749 750 754 755 755 753 758 762 766 770 768 768 767 773 781 787 792 798 806 811 817 823 826 829 832
815 825 820 819 813 809 810 806 805 816 816 819 810 807 794 785 777 770 761 762 760 760 760 761 758 751 754 757 760 765 765 764 769 774 780 785 792 796 803 808 814 819 823 826
823 830 829 827 814 813 813 807 803 803 805 806 805 805 793 786 780 776 770 765 774 773 768 764 765 759 750 747 749 753 757 763 765 767 772 778 785 791 794 799 804 810 814 819
826 832 841 838 827 821 822 808 804 802 800 801 812 804 793 797 792 786 785 781 782 780 775 775 773 767 760 756 748 745 752 759 760 762 767 771 776 782 787 792 797 801 805 810
829 836 846 849 835 848 812 803 800 799 799 799 796 797 800 801 798 796 792 792 790 786 782 777 773 770 765 760 758 753 751 750 754 755 760 765 770 773 781 785 788 793 798 801
827 837 848 844 855 826 807 815 818 814 808 811 809 803 804 804 794 794 797 797 792 789 786 777 769 763 758 750 752 751 751 748 750 748 751 758 764 768 773 776 778 784 791 794
829 830 839 845 846 844 831 822 813 806 811 819 817 812 810 807 804 795 797 801 799 791 779 776 768 764 763 755 747 746 742 747 744 743 743 750 757 762 765 765 771 776 782 786
845 845 847 837 834 825 828 819 808 814 816 817 820 816 808 813 810 797 791 787 797 798 788 776 769 767 763 760 755 748 739 738 741 745 738 740 747 755 759 759 764 768 773 779
847 854 845 852 836 830 827 822 827 823 821 820 816 814 807 801 798 794 789 784 777 775 779 775 768 764 761 758 755 753 746 735 728 729 733 732 740 746 751 754 756 761 766 770
850 851 854 847 843 828 831 832 830 826 823 818 812 810 805 796 788 783 777 776 772 769 763 762 757 758 758 758 751 750 743 740 733 725 727 735 730 732 737 741 748 753 757 761
841 846 848 847 831 831 829 826 825 822 818 813 810 803 797 791 780 775 771 764 762 759 757 753 753 751 755 750 753 752 746 740 727 721 727 729 726 725 728 729 736 739 743 748
840 842 836 835 830 828 825 824 820 816 812 806 800 796 791 782 774 771 766 759 754 752 748 743 742 741 737 736 741 747 747 746 746 738 730 723 720 720 722 726 728 726 726 731
831 830 832 831 821 824 820 817 814 813 807 801 798 790 785 780 772 766 761 753 745 742 740 735 733 733 733 736 731 731 739 735 735 728 725 720 715 710 711 715 717 717 721 724